www.pogodaiklimat.ru

Погода и климат >> Архив погоды >> Россия >> Эвенкия >> Тутончаны


ПОГОДА в Тутончанах

  • Прогноз погоды в Тутончанах
  • Монитор погоды в Тутончанах
  • Климат города

АРХИВ ПОГОДЫ в Тутончанах

Время (UTC), дата Ветер
(напр.,м/с)
 
Видим.   Явления Облачность Т
(С)
Тd
(С)
f
(%)
Тe
(С)
Тes
(С)
Комфортность P
(гПа)
Po
(гПа)
Тmin
(С)
Tmax
(С)
R
(мм)
R24
(мм)
S
(см)
06 16.01 В 1 20 км дым 6/0
[Ci fib]
-50.6 -56.5 49 -57 -57 опасность
обморожения
1016.8 1000.2
09 16.01 штиль 0 н/о 9/0
[Cs]
-47.5 -53.3 51 -48 -48 опасность
обморожения
1015.5 999.1
12 16.01 С 1 н/о 9/0
[Cs]
-45.1 -50.5 54 -51 -51 опасность
обморожения
1014.9 998.8 -45.1
15 16.01 СВ 2 н/о слабый снег 9/0
[Cs]
-43.4 -48.3 58 -53 -53 опасность
обморожения
1013.0 997.1
18 16.01 СВ 1 н/о слабый снег 9/0
[Cs]
-41.1 -45.9 60 -46 -46 опасность
обморожения
1011.1 995.3
21 16.01 СВ 2 н/о слабый снег 9/0
[Cs]
-40.6 -45.3 60 -50 -50 опасность
обморожения
1009.4 993.6
00 17.01 С 2 н/о слабый снег 9/0
[Cs]
-40.5 -45.3 60 -50 -50 опасность
обморожения
1007.6 991.9 -45.3 0.7 78
03 17.01 штиль 0 50 км {снег} 9/5 1000 м
[Sc Cs]
-41.0 -45.9 59 -41 -41 опасность
обморожения
1007.0 991.3
06 17.01 ЮЗ 1 10 км слабый снег 9/6 1000 м
[Sc Cs]
-39.2 -43.9 61 -44 -44 опасность
обморожения
1006.6 991.1
09 17.01 ЮЗ 1 10 км слабый снег 10/0
[As op]
-37.3 -41.5 65 -42 -42 опасность
обморожения
1008.5 993.0
12 17.01 З 1 н/о слабый снег 10/0
[As op]
-38.4 -42.7 64 -43 -43 опасность
обморожения
1012.4 996.8 -37.3 0.5
15 17.01 З 1 н/о {снег} 8/0
[Ci fib]
-40.8 -45.9 58 -46 -46 опасность
обморожения
1016.7 1000.9
18 17.01 ЮЗ 1 н/о {снег} 5/0
[Ci fib]
-43.6 -48.3 59 -49 -49 опасность
обморожения
1021.4 1005.2
21 17.01 ЮЗ 1 н/о 4/0
[Ci fib]
-46.0 -51.4 54 -52 -52 опасность
обморожения
1025.5 1009.1
00 18.01 ЮЗ 1 н/о 3/0
[Ci fib]
-46.9 -52.3 54 -53 -53 опасность
обморожения
1028.5 1012.1 -47.7 0.0 78
03 18.01 ЮЗ 1 50 км 3/0
[Ci fib]
-48.0 -53.3 54 -54 -54 опасность
обморожения
1030.9 1014.3
06 18.01 ЮЗ 1 50 км 4/0
[Ci fib]
-46.7 -52.3 53 -53 -52 опасность
обморожения
1033.3 1016.8
09 18.01 Ю 1 50 км 4/0
[Ci fib]
-47.1 -52.3 55 -53 -53 опасность
обморожения
1035.5 1018.9
12 18.01 штиль 0 н/о ясно -50.2 -56.5 47 -50 -50 опасность
обморожения
1037.6 1020.8 -46.7
15 18.01 штиль 0 н/о ясно -53.2 -59.8 44 -53 -53 опасность
обморожения
1040.0 1022.9
18 18.01 штиль 0 н/о ясно -55.0 -60.6 50 -55 -55 опасность
обморожения
1042.0 1024.7
21 18.01 штиль 0 н/о ясно -56.0 -62.8 42 -56 -56 опасность
обморожения
1044.1 1026.7
00 19.01 штиль 0 н/о ясно -56.8 -63.7 41 -57 -57 опасность
обморожения
1045.8 1028.3 -56.9 78
03 19.01 штиль 0 20 км дым ясно -57.0 -63.7 42 -57 -57 опасность
обморожения
1047.2 1029.7 -57.2
06 19.01 штиль 0 20 км дым ясно -54.7 -60.6 48 -55 -54 опасность
обморожения
1049.2 1031.8
09 19.01 штиль 0 20 км дым ясно -53.5 -60.6 41 -54 -54 опасность
обморожения
1051.1 1033.7
12 19.01 штиль 0 н/о ясно -55.2 -62.8 38 -55 -55 опасность
обморожения
1053.1 1035.6 -53.5
15 19.01 штиль 0 н/о ясно -55.8 -62.8 41 -56 -56 опасность
обморожения
1055.1 1037.5
18 19.01 штиль 0 н/о ясно -56.1 -62.8 42 -56 -56 опасность
обморожения
1056.4 1038.8
21 19.01 штиль 0 н/о ясно -56.5 -63.7 40 -57 -57 опасность
обморожения
1058.1 1040.4
00 20.01 штиль 0 н/о ясно -56.7 -63.7 41 -57 -57 опасность
обморожения
1060.3 1042.5 -56.8 78
03 20.01 штиль 0 20 км дым ясно -57.1 -63.7 43 -57 -57 опасность
обморожения
1062.3 1044.5 -57.1
06 20.01 штиль 0 20 км дым ясно -54.6 -60.6 47 -55 -54 опасность
обморожения
1064.3 1046.7
09 20.01 штиль 0 20 км дым ясно -53.2 -60.6 40 -53 -53 опасность
обморожения
1066.3 1048.8
12 20.01 штиль 0 н/о ясно -54.3 -60.6 46 -54 -54 опасность
обморожения
1068.3 1050.7 -53.2
15 20.01 штиль 0 н/о ясно -54.8 -60.6 48 -55 -55 опасность
обморожения
1069.3 1051.6
18 20.01 штиль 0 н/о ясно -54.9 -60.6 49 -55 -55 опасность
обморожения
1070.0 1052.3
21 20.01 штиль 0 н/о ясно -54.7 -60.6 48 -55 -55 опасность
обморожения
1070.4 1052.7
00 21.01 Ю 1 н/о ясно -53.2 -60.6 40 -60 -60 опасность
обморожения
1069.3 1051.8 -55.0 78
03 21.01 штиль 0 20 км дым 4/0
[Ci fib]
-51.5 -58.0 45 -52 -52 опасность
обморожения
1068.6 1051.2
06 21.01 ЮЗ 1 50 км дым 5/0
[Ci fib]
-50.4 -56.5 48 -57 -56 опасность
обморожения
1067.4 1050.1
09 21.01 штиль 0 20 км дым ясно -48.1 -54.1 50 -48 -48 опасность
обморожения
1066.6 1049.4
12 21.01 штиль 0 н/о 3/0
[Ci fib]
-49.2 -55.2 49 -49 -49 опасность
обморожения
1065.5 1048.3 -48.1
15 21.01 штиль 0 н/о ледяные иглы 4/0
[Ci fib]
-49.1 -55.2 49 -49 -49 опасность
обморожения
1064.5 1047.4
18 21.01 штиль 0 н/о ясно -49.5 -55.2 51 -50 -50 опасность
обморожения
1063.8 1046.6
21 21.01 штиль 0 н/о ясно -49.3 -55.2 50 -49 -49 опасность
обморожения
1061.9 1044.8
00 22.01 штиль 0 н/о ясно -47.5 -53.3 51 -48 -48 опасность
обморожения
1059.9 1042.9 -49.6 0.0 78
03 22.01 З 1 10 км слабый снег 10/0
[Ac As]
-44.8 -50.5 53 -51 -51 опасность
обморожения
1056.4 1039.6
06 22.01 Ю 1 10 км слабый снег 10/0
[Ac As]
-42.1 -47.0 59 -48 -47 опасность
обморожения
1051.6 1035.2
09 22.01 З 1 20 км слабый снег 9/0
[Ac As]
-39.5 -44.4 59 -45 -45 опасность
обморожения
1049.5 1033.1
12 22.01 штиль 0 н/о {снег} 8/0
[Ci fib]
-42.5 -47.0 61 -43 -43 опасность
обморожения
1049.3 1032.8 -39.5 0.3
15 22.01 штиль 0 н/о 4/0
[Ci fib]
-39.9 -44.8 59 -40 -40 опасность
обморожения
1048.6 1032.3
18 22.01 В 1 н/о 3/0
[Ci fib]
-43.0 -47.6 60 -49 -49 опасность
обморожения
1049.6 1033.1
21 22.01 В 1 н/о 3/0
[Ci fib]
-44.3 -49.0 59 -50 -50 опасность
обморожения
1050.7 1034.1
00 23.01 штиль 0 н/о ясно -45.5 -50.5 57 -46 -46 опасность
обморожения
1051.1 1034.3 -45.5 78

 

Местоположение метеостанции Тутончаны (Эвенкия, Россия): широта 64.20 долгота 93.78 высота над уровнем моря 106 м.

В архиве по умолчанию представлена погода в Тутончанах за последнюю неделю. Архивные данные за месяц целиком и за предыдущие месяцы, начиная с января 2011 года, Вы можете получить, выбрав интересующий диапазон дат из раскрывающегося списка и нажав кнопку "Ввод!".

Внимание! Время в таблицах - всемирное. Для получения местного времени необходимо прибавить поправку, которая в Тутончанах равна 7 ч.

Смотрите также архив погоды в соседних городах и на ближайших метеорологических станциях:

Погода в Кузьмовке (Эвенкия, Россия) (225 км)
Погода в Большом Пороге (Эвенкия, Россия) (237 км)
Погода в Тембенчи (Эвенкия, Россия) (258 км)
Погода в Агате (Эвенкия, Россия) (298 км)
Погода в Верещагино (Красноярский край, Россия) (305 км)
Погода в Бахте (Красноярский край, Россия) (306 км)
Погода в Верхнеимбатске (Красноярский край, Россия) (310 км)
Погода в Байките (Эвенкия, Россия) (310 км)
Погода в Туре (Эвенкия, Россия) (320 км)
Погода в Туруханске (Красноярский край, Россия) (326 км)

Пояснения к столбцам:

Ветер - указаны скорость ветра в м/с - средняя за 10 мин, порывы в срок и между сроками (в фигурных скобках) и направление, откуда дует ветер: С - северный, СВ - северо-восточный, В - восточный, ЮВ - юго-восточный, Ю - южный, ЮЗ - юго-западный, З - западный, СЗ - северо-западный.
Видимость - горизонтальная дальность видимости в метрах или километрах. При видимости от 1 до 10 км при отсутствии осадков обычно наблюдается дымка, при ухудшении видимости до 1 км и менее - туман. В сухую погоду видимость может ухудшаться дымом, пылью или мглою.
Явления - указаны атмосферные явления, наблюдавшиеся в срок или в последний час перед сроком; фигурными скобками обозначены явления, наблюдавшиеся между сроками (за 1-3 часа до срока); квадратными скобками обозначены град или гололедные отложения с указанием их диаметра в мм.
Облачность - указаны через наклонную черту общая и нижняя облачность в баллах и высота нижней границы облаков в метрах; квадратными скобками обозначены формы облаков: Ci - перистые, Cs - перисто-слоистые, Cc - перисто-кучевые, Ac - высококучевые, As - высокослоистые, Sc - слоисто-кучевые, Ns - слоисто-дождевые, Cu - кучевые, Cb - кучево-дождевые. Подробнее классификацию облаков см. в Атласе облаков (PDF).
T - Температура воздуха - температура, измеренная на высоте 2 м над землей.
Td - Температура точки росы - температура, при понижении до которой содержащийся в воздухе водяной пар достигнет насыщения.
f - Относительная влажность воздуха - влажноcть воздуха, измеренная на высоте 2 м над землей.
Te - Эффективная температура - температура, которую ощущает одетый по сезону человек в тени. Характеристика душности погоды. При расчете учитывается влияние влажности воздуха и скорости ветра на теплоощущения человека.
Tes - Эффективная температура на солнце - температура, которую ощущает человек, с поправкой на солнечный нагрев. Характеристика знойности погоды. Зависит от высоты солнца над горизонтом, облачности и скорости ветра. Ночью, в пасмурную погоду, а также при ветре 12 м/с и более поправка равна нулю.
P - Атмосферное давление - приведенное к уровню моря атмосферное давление.
Po - Атмосферное давление - измеренное на уровне метеостанции атмосферное давление.
Tmin - Минимальная температура - минимум температуры воздуха на высоте 2 м над землей.
Tmax - Максимальная температура - максимум температуры воздуха на высоте 2 м над землей.
R - Количество осадков - Количество выпавших осадков за период времени, мм. При наведении курсора мыши на число - период времени, за который выпало указанное количество осадков.
R24 - Количество осадков - Количество выпавших осадков за 24 часа, мм.
S - Снежный покров - Высота снежного покрова, см. При наведении курсора мыши на число - состояние снежного покрова и степень покрытия местности в баллах.